User: anonymous   Login
Location: Unspecified
(0.0000°N, 0.0000°E)
Time: 03:22:25
(UTC+00:00)
Language:

STARLINK-6267 - Orbit

View from above orbital plane
View from above orbital plane
View from above satellite
View from above satellite

Ground track
Ground track

The orbit is defined by the following mean orbital elements,

1 56400U          26145.63711907 +.00000000 +00000-0 +35818-4 0 00009
2 56400  43.0049 112.4045 0001868 280.6398  79.4243 15.27579183    00
Epoch (UTC): 25 May 2026 15:17:27
Eccentricity: 0.0001868
inclination: 43.0049°
perigee height: 482 km
apogee height: 484 km
right ascension of ascending node: 112.4045°
argument of perigee: 280.6398°
revolutions per day: 15.27579183
mean anomaly at epoch: 79.4243°

The dashed part of the orbit path shows where the satellite is in the earth's shadow,  

DLR